• In Czech Republic
  • List of Countries
  • For 7 days
  • Water Temperature
  • Satellite Maps
  • Weather Map
  • Weather Widgets
  • user-avatar
    Login

    Hourly Weather Parakou

    Today, 15 November, Thursday

    Time Temperature Precipitation Wind Pressure Humidity
    00:00 +28°C° 0 mm 1 mps 727 mmHg 30%
    01:00 +27°C° 0 mm 1 mps 726 mmHg 32%
    02:00 +27°C° 0 mm 1 mps 726 mmHg 34%
    03:00 +26°C° 0 mm 1 mps 726 mmHg 35%
    04:00 +26°C° 0 mm 1 mps 726 mmHg 40%
    05:00 +25°C° 0 mm 1 mps 726 mmHg 46%
    06:00 +23°C° 0 mm 0 mps 727 mmHg 51%
    07:00 +28°C° 0 mm 1 mps 727 mmHg 47%
    08:00 +30°C° 0 mm 1 mps 727 mmHg 42%
    09:00 +33°C° 0 mm 1 mps 728 mmHg 38%
    10:00 +35°C° 0 mm 1 mps 727 mmHg 32%
    11:00 +37°C° 0 mm 1 mps 727 mmHg 25%
    12:00 +40°C° 0 mm 1 mps 727 mmHg 18%
    13:00 +40°C° 0 mm 1 mps 726 mmHg 17%
    14:00 +40°C° 0 mm 1 mps 725 mmHg 16%
    15:00 +40°C° 0 mm 1 mps 725 mmHg 15%
    16:00 +37°C° 0 mm 1 mps 725 mmHg 17%
    17:00 +34°C° 0 mm 1 mps 725 mmHg 20%
    18:00 +32°C° 0 mm 1 mps 725 mmHg 22%
    19:00 +32°C° 0 mm 1 mps 726 mmHg 23%
    20:00 +31°C° 0 mm 1 mps 726 mmHg 24%
    21:00 +30°C° 0 mm 1 mps 727 mmHg 26%
    22:00 +29°C° 0 mm 1 mps 727 mmHg 30%
    23:00 +29°C° 0 mm 2 mps 727 mmHg 33%

    Tomorrow, 16 November, Friday

    Time Temperature Precipitation Wind Pressure Humidity
    00:00 +28°C° 0 mm 2 mps 727 mmHg 37%
    01:00 +27°C° 0 mm 2 mps 727 mmHg 49%
    02:00 +27°C° 0 mm 2 mps 727 mmHg 62%
    03:00 +26°C° 0 mm 2 mps 727 mmHg 74%
    04:00 +26°C° 0 mm 1 mps 727 mmHg 79%
    05:00 +25°C° 0 mm 1 mps 727 mmHg 85%
    06:00 +25°C° 0 mm 1 mps 728 mmHg 90%
    07:00 +27°C° 0 mm 1 mps 728 mmHg 80%
    08:00 +29°C° 0 mm 2 mps 729 mmHg 69%
    09:00 +31°C° 0 mm 2 mps 729 mmHg 58%
    10:00 +35°C° 0 mm 2 mps 729 mmHg 48%
    11:00 +37°C° 0 mm 1 mps 728 mmHg 38%
    12:00 +40°C° 0 mm 1 mps 728 mmHg 27%
    13:00 +37°C° 0 mm 0 mps 727 mmHg 26%
    14:00 +37°C° 0 mm 0 mps 727 mmHg 24%
    15:00 +37°C° 0 mm 0 mps 726 mmHg 22%
    16:00 +35°C° 0 mm 0 mps 726 mmHg 25%
    17:00 +33°C° 0 mm 0 mps 726 mmHg 27%
    18:00 +31°C° 0 mm 0 mps 726 mmHg 30%
    19:00 +32°C° 0 mm 1 mps 726 mmHg 32%
    20:00 +31°C° 0 mm 1 mps 727 mmHg 33%
    21:00 +31°C° 0 mm 1 mps 727 mmHg 35%
    22:00 +30°C° 0 mm 1 mps 727 mmHg 39%
    23:00 +29°C° 0 mm 1 mps 727 mmHg 43%

    Day after tomorrow, 17 November, Saturday

    Time Temperature Precipitation Wind Pressure Humidity
    00:00 +29°C° 0 mm 2 mps 727 mmHg 47%
    01:00 +28°C° 0 mm 2 mps 727 mmHg 55%
    02:00 +27°C° 0 mm 2 mps 727 mmHg 63%
    03:00 +27°C° 0 mm 2 mps 726 mmHg 71%
    04:00 +26°C° 0 mm 2 mps 727 mmHg 76%
    05:00 +26°C° 0 mm 2 mps 727 mmHg 81%
    06:00 +26°C° 0 mm 2 mps 727 mmHg 86%
    07:00 +28°C° 0 mm 2 mps 728 mmHg 78%
    08:00 +29°C° 0 mm 2 mps 729 mmHg 70%
    09:00 +31°C° 0 mm 3 mps 729 mmHg 62%
    10:00 +34°C° 0 mm 2 mps 729 mmHg 53%
    11:00 +36°C° 0 mm 2 mps 728 mmHg 44%
    12:00 +38°C° 0 mm 2 mps 727 mmHg 36%
    13:00 +39°C° 0 mm 1 mps 727 mmHg 33%
    14:00 +39°C° 0 mm 1 mps 726 mmHg 31%
    15:00 +39°C° 0 mm 1 mps 725 mmHg 28%
    16:00 +36°C° 0 mm 1 mps 725 mmHg 32%
    17:00 +35°C° 0 mm 1 mps 725 mmHg 35%
    18:00 +33°C° 0 mm 1 mps 725 mmHg 38%
    19:00 +32°C° 0 mm 1 mps 726 mmHg 41%
    20:00 +31°C° 0 mm 2 mps 727 mmHg 44%
    21:00 +30°C° 0 mm 2 mps 727 mmHg 47%
    22:00 +30°C° 0 mm 2 mps 727 mmHg 52%
    23:00 +29°C° 0 mm 2 mps 727 mmHg 57%

    18 November, Sunday

    Time Temperature Precipitation Wind Pressure Humidity
    00:00 +29°C° 0 mm 3 mps 727 mmHg 62%
    01:00 +28°C° 0.1 mm 3 mps 726 mmHg 68%
    02:00 +28°C° 0.1 mm 2 mps 726 mmHg 74%
    03:00 +27°C° 0.1 mm 2 mps 726 mmHg 80%
    04:00 +27°C° 0.1 mm 2 mps 726 mmHg 81%
    05:00 +26°C° 0.1 mm 2 mps 727 mmHg 83%
    06:00 +26°C° 0.1 mm 2 mps 727 mmHg 84%
    07:00 +28°C° 0 mm 2 mps 728 mmHg 76%
    08:00 +30°C° 0 mm 3 mps 728 mmHg 68%
    09:00 +31°C° 0 mm 3 mps 729 mmHg 60%
    10:00 +35°C° 0.1 mm 2 mps 728 mmHg 51%
    11:00 +37°C° 0.1 mm 2 mps 727 mmHg 43%
    12:00 +39°C° 0.1 mm 1 mps 727 mmHg 34%
    13:00 +37°C° 0 mm 1 mps 726 mmHg 33%
    14:00 +37°C° 0 mm 1 mps 725 mmHg 32%
    15:00 +35°C° 0 mm 0 mps 725 mmHg 31%
    16:00 +36°C° 0 mm 1 mps 725 mmHg 34%
    17:00 +34°C° 0 mm 1 mps 725 mmHg 37%
    18:00 +33°C° 0 mm 1 mps 725 mmHg 39%
    19:00 +32°C° 0 mm 1 mps 726 mmHg 41%
    20:00 +32°C° 0 mm 1 mps 726 mmHg 44%
    21:00 +31°C° 0 mm 1 mps 727 mmHg 46%
    22:00 +30°C° 0.1 mm 2 mps 727 mmHg 51%
    23:00 +30°C° 0.1 mm 2 mps 726 mmHg 55%

    19 November, Monday

    Time Temperature Precipitation Wind Pressure Humidity
    00:00 +29°C° 0.1 mm 2 mps 726 mmHg 60%
    01:00 +28°C° 0.1 mm 2 mps 726 mmHg 67%
    02:00 +28°C° 0.1 mm 3 mps 726 mmHg 74%
    03:00 +27°C° 0.1 mm 3 mps 725 mmHg 81%
    04:00 +26°C° 0 mm 2 mps 726 mmHg 83%
    05:00 +26°C° 0 mm 2 mps 726 mmHg 84%
    06:00 +26°C° 0 mm 2 mps 727 mmHg 86%
    07:00 +28°C° 0 mm 2 mps 727 mmHg 77%
    08:00 +30°C° 0 mm 2 mps 728 mmHg 68%
    09:00 +32°C° 0 mm 2 mps 728 mmHg 58%
    10:00 +36°C° 0 mm 2 mps 727 mmHg 50%
    11:00 +37°C° 0 mm 1 mps 727 mmHg 41%
    12:00 +38°C° 0 mm 0 mps 726 mmHg 32%
    13:00 +37°C° 0 mm 0 mps 726 mmHg 32%
    14:00 +36°C° 0 mm 0 mps 725 mmHg 32%
    15:00 +35°C° 0 mm 0 mps 724 mmHg 33%
    16:00 +36°C° 0 mm 1 mps 725 mmHg 35%
    17:00 +35°C° 0 mm 1 mps 725 mmHg 37%
    18:00 +34°C° 0 mm 1 mps 725 mmHg 39%
    19:00 +33°C° 0.3 mm 1 mps 726 mmHg 44%
    20:00 +32°C° 0.3 mm 1 mps 726 mmHg 48%
    21:00 +31°C° 0.3 mm 1 mps 727 mmHg 52%
    22:00 +30°C° 0.1 mm 2 mps 727 mmHg 57%
    23:00 +29°C° 0.1 mm 2 mps 727 mmHg 63%

    20 November, Tuesday

    Time Temperature Precipitation Wind Pressure Humidity
    00:00 +28°C° 0.1 mm 2 mps 726 mmHg 68%
    01:00 +28°C° 0 mm 2 mps 726 mmHg 72%
    02:00 +27°C° 0 mm 2 mps 726 mmHg 76%
    03:00 +27°C° 0 mm 2 mps 725 mmHg 80%
    04:00 +27°C° 0 mm 2 mps 726 mmHg 81%
    05:00 +27°C° 0 mm 2 mps 726 mmHg 83%
    06:00 +26°C° 0 mm 1 mps 727 mmHg 84%
    07:00 +28°C° 0 mm 1 mps 727 mmHg 77%
    08:00 +29°C° 0 mm 2 mps 728 mmHg 69%
    09:00 +31°C° 0 mm 2 mps 728 mmHg 62%
    10:00 +34°C° 0 mm 1 mps 728 mmHg 53%
    11:00 +36°C° 0 mm 1 mps 727 mmHg 44%
    12:00 +40°C° 0 mm 1 mps 727 mmHg 34%
    13:00 +39°C° 0 mm 1 mps 726 mmHg 33%
    14:00 +39°C° 0 mm 1 mps 726 mmHg 31%
    15:00 +39°C° 0 mm 1 mps 725 mmHg 30%
    16:00 +36°C° 0 mm 1 mps 725 mmHg 32%
    17:00 +35°C° 0 mm 1 mps 726 mmHg 34%
    18:00 +34°C° 0 mm 1 mps 726 mmHg 36%
    19:00 +33°C° 0 mm 1 mps 726 mmHg 38%
    20:00 +32°C° 0 mm 1 mps 727 mmHg 40%
    21:00 +31°C° 0 mm 1 mps 727 mmHg 42%
    22:00 +31°C° 0.1 mm 1 mps 727 mmHg 45%
    23:00 +30°C° 0.1 mm 1 mps 727 mmHg 48%
    Show more